Rio Vista Municipal (O88)
Rio Vista, CA
Field Elevation: 23
Lat: 38°11.60N  Long: 121°42.22W
CTAF/Unicom Freq: 122.7250
   
     For Weather-by-Phone, call (707) 374-5396
Weather Advisories
9/16/2014 09:19 Z
Altimeter 29.90" Hg
Wind 230° @ 16 KT
Gusts --
Visibility 10 SM
Ceiling CLR
Temperature 18° C (64° F)
Dewpoint 12° C (54° F)
Relative Humidity 70%
Density Altitude --
Condensation Altitude 2,800 feet
  Wind and Runways
Indicated Runway = 25
History
 
 
More Info
All DigiWx sites map
NOAA Forecast
 
Airport IQ 5010
(DUC) Stack Farm
(CA37) Dominican
 
about DigiWx
 
FAA Disclaimer: The data displayed is for advisory purposes only and is not to be used for flight planning or operations. For official data, please call (707) 374-5396 to hear the current automated AWOS voice message.
  METAR O88 160919Z AUTO 23016KT 10SM CLR 18/12 A2990